Regional Weather Roundup
Issued by NWS

Home | Current Version | Previous Version | Text Only | Print | Product List | Glossary Off
Versions: 1 2 3 4 5 6 7 8 9 10 11 12 13 14 15 16 17 18 19 20 21 22 23 24 25 26 27 28 29 30 31 32 33 34 35 36 37 38 39 40 41 42 43 44 45 46 47 48 49 50

000
ASUS43 KDMX 280006
RWRIA

WEATHER ROUNDUP FOR IOWA
NATIONAL WEATHER SERVICE DES MOINES IA
700 PM CDT THU JUL 27 2017

NOTE: "FAIR" INDICATES FEW OR NO CLOUDS BELOW 12,000 FEET WITH NO
SIGNIFICANT WEATHER AND/OR OBSTRUCTIONS TO VISIBILITY.

* - THESE STATIONS ARE NOT NWS STATIONS...THUS NOT UNDER NWS
QUALITY CONTROL.  THEY ALSO DO NOT REPORT WEATHER SUCH
AS PRECIPITATION OR FOG.

IAZ001>003-012>014-020>022-031>034-043>046-280100-
   NORTHWEST IOWA

CITY           SKY/WX    TMP DP  RH WIND       PRES   REMARKS
CARROLL *      MOSUNNY   81  64  57 NE7       30.00F HX  82
CHEROKEE *     MOSUNNY   81  60  48 N10       30.03S HX  81
DENISON *      SUNNY     79  64  61 NE5       30.03S HX  81
ORANGE CITY *  MOSUNNY   81  63  54 E8        30.05S HX  82
SHELDON *      PTSUNNY   81  63  54 NE8       30.04S HX  82
SIOUX CITY     SUNNY     84  61  45 NE9       30.02S HX  84
6HR MIN TEMP:  83; 6HR MAX TEMP:  87;

SPENCER        SUNNY     79  60  52 N9        30.04S HX  80
6HR MIN TEMP:  79; 6HR MAX TEMP:  86;

STORM LAKE *   SUNNY     79  63  57 NE9       30.04S HX  80
$$

IAZ055>058-069>071-079>083-090>094-280100-
   SOUTHWEST IOWA

CITY           SKY/WX    TMP DP  RH WIND       PRES   REMARKS
ATLANTIC *     SUNNY     81  64  57 NE9       29.99S HX  82
AUDUBON *      SUNNY     81  66  61 N5        30.02S HX  83
CLARINDA *     SUNNY     81  68  65 N8        29.99S HX  83
COUNCIL BLFS * SUNNY     81  66  61 NE6       30.00F HX  83
CRESTON *      SUNNY     82  63  51 NE12G18   29.99S HX  83
HARLAN  *      SUNNY     81  63  54 NE7G14    30.03F HX  82
LAMONI         SUNNY     85  67  54 NE13      29.95S HX  87
6HR MIN TEMP:  84; 6HR MAX TEMP:  90;

RED OAK *      SUNNY     81  64  57 N9        29.99S HX  82
SHENANDOAH *   SUNNY     81  66  61 N8        29.98F HX  83
$$

IAZ047>049-059>061-072>074-084-280100-
   CENTRAL IOWA

CITY           SKY/WX    TMP DP  RH WIND       PRES   REMARKS
AMES           SUNNY     81  62  52 NE10      29.99S HX  82
6HR MIN TEMP:  81; 6HR MAX TEMP:  85;

ANKENY *       SUNNY     81  59  47 NE9       29.99S HX  81
BOONE *        SUNNY     81  63  54 NE7       29.99F HX  82
CHARITON *     SUNNY     82  63  51 NE13      29.96S HX  83
DES MOINES     MOSUNNY   83  57  41 N15       29.97S HX  82
6HR MIN TEMP:  83; 6HR MAX TEMP:  87;

GRINNELL*      SUNNY     79  61  52 N8G16     29.99R HX  80
KNOXVILLE *    SUNNY     82  59  44 N14       29.95S HX  82
MARSHALLTOWN   MOSUNNY   81  64  56 NE9       29.98F HX  82
6HR MIN TEMP:  80; 6HR MAX TEMP:  85;

NEWTON *       MOSUNNY   81  61  50 NE12      29.98S HX  81
PELLA *        SUNNY     84  59  43 NE7       29.98R HX  84
PERRY *          N/A     81  58  45 NE8       29.99F HX  81
$$

IAZ004>006-015-016-023>025-035-036-280100-
   NORTH CENTRAL IOWA

CITY           SKY/WX    TMP DP  RH WIND       PRES   REMARKS
ALGONA *       SUNNY     81  66  61 N8        30.03S HX  83
ESTHERVILLE    SUNNY     79  64  60 N10       30.04S HX  81
6HR MIN TEMP:  78; 6HR MAX TEMP:  82;

FORT DODGE *   SUNNY     81  63  54 NE6       30.02S HX  82
MASON CITY     MOSUNNY   78  65  63 N12       30.03S HX  80
6HR MIN TEMP:  77; 6HR MAX TEMP:  83;

FOREST CITY *    N/A     79  63  57 NE9       30.03R HX  80
WEBSTER CITY * SUNNY     81  63  54 NE7       29.98F HX  82
IOWA FALLS *     N/A     81  63  52 NE5       30.01F HX  82
$$

IAZ007>011-017>019-026>030-037>042-050>054-066-280100-
   NORTHEAST IOWA

CITY           SKY/WX    TMP DP  RH WIND       PRES   REMARKS
CHARLES CITY * PTSUNNY   79  64  61 NE6       30.01S HX  81
DECORAH *      MOSUNNY  N/A N/A N/A MISG        N/A
DUBUQUE        SUNNY     79  60  52 E8        29.99R HX  80
6HR MIN TEMP:  78; 6HR MAX TEMP:  82;

MONTICELLO *   SUNNY     81  63  54 N5        29.97R HX  82
OELWEIN *      SUNNY     79  66  65 NE7       30.00S HX  81
WATERLOO       SUNNY     80  63  55 NE7       29.98S HX  81
6HR MIN TEMP:  80; 6HR MAX TEMP:  83;

$$

IAZ064-065-067-068-078-280100-
   EAST CENTRAL IOWA

CITY           SKY/WX    TMP DP  RH WIND       PRES   REMARKS
DAVENPORT      SUNNY     80  67  64 NE12      29.96R HX  82
6HR MIN TEMP:  79; 6HR MAX TEMP:  84;

IOWA CITY      SUNNY     84  64  50 NE14      29.96S HX  85
6HR MIN TEMP:  83; 6HR MAX TEMP:  88;

MT. PLEASANT * SUNNY     81  67  62 N12       29.93S HX  83
MUSCATINE *    SUNNY     82  68  61 NE10G17   29.93S HX  85
QUAD CITIES    SUNNY     82  64  54 NE15      29.93R HX  83
6HR MIN TEMP:  82; 6HR MAX TEMP:  86;

$$

IAZ062-063-075>077-085>089-095>099-280100-
   SOUTHEAST IOWA

CITY           SKY/WX    TMP DP  RH WIND       PRES   REMARKS
BURLINGTON     SUNNY     82  71  69 N14G20    29.92S HX  86
6HR MIN TEMP:  79; 6HR MAX TEMP:  85;

FAIRFIELD *    SUNNY     82  64  54 N13       29.94S HX  84
FORT MADISON * SUNNY     81  72  74 N10       29.93R HX  84
KEOKUK *       MOSUNNY   84  70  61 N10       29.91S HX  88
OSKALOOSA *      N/A     82  60  46 N10       29.96R HX  83
CENTERVILLE *    N/A     82  66  57 N10G17    29.96R HX  85
OTTUMWA        SUNNY     85  62  46 N12       29.93F HX  85
6HR MIN TEMP:  85; 6HR MAX TEMP:  89;

WASHINGTON *   SUNNY     81  66  61 N8        29.95S HX  83
$$

ABBREVIATIONS USED IN REMARKS
   TC - TEMPERATURES IN CELSIUS
  WCI - WIND CHILL INDEX
   HX - HEAT INDEX
  VSB - VISIBILITY
$$




USA.gov is the U.S. government's official web portal to all federal, state and local government web resources and services.